[[{"header":{"parameterUnit":"m.s-1","parameterCategory":2,"la1":30.2991,"la2":30.254,"lo1":-89.0895,"lo2":-89.0444,"dy":0.0017,"dx":0.0017,"nx":28,"ny":28,"refTime":"2024-07-11T21:00:00:Z","depth":"0","parameterNumber":2,"parameterNumberName":"U-component_of_CURRENTS"},"data":[0,0,0,0,0,0,0,0,0,0,0,0,0,0,0,0,0,0,0,0,0,0,0,0,0,0,0,0,0,0,0,0,0,0,0,0,0,0,0,0,0,0,0,0,0,0,0,0,0,0,0,0,0,0,0,0,0,0,0.1625,0.1624,0,0.1545,0.1543,0.1542,0.1445,0.1445,0.1444,0.1443,0.136,0.1359,0.1357,0,0,0,0,0,0,0,0,0,0,0,0,0,0.1597,0.1598,0.1625,0.1624,0.1624,0.1545,0.1543,0.1541,0.1445,0.1445,0.1444,0.1443,0.1361,0.1359,0.1357,0,0,0,0,0,0,0,0,0,0,0,0,0,0.1566,0.1598,0.1625,0.1572,0.1567,0.1545,0.1543,0.1541,0.1446,0.1444,0.1443,0.1442,0.1361,0.1359,0.1357,0.1368,0,0,0.135,0.1349,0,0,0,0,0,0,0,0,0.1568,0.1566,0.158,0.1576,0.157,0.151,0.1503,0.1485,0.1446,0.1484,0.1443,0.1442,0.1416,0.1409,0.1386,0.1364,0.136,0.135,0.1349,0.1348,0.1347,0,0,0,0,0,0,0,0.157,0.1568,0.1585,0.158,0.1574,0.152,0.1514,0.1498,0.1452,0.1481,0.1475,0.1479,0.1412,0.1388,0.1384,0.1359,0.135,0.1348,0.1347,0.1346,0.1413,0.1416,0,0,0,0,0,0,0.1602,0.1571,0.1588,0.1584,0.1574,0.1522,0.1515,0.1525,0.1452,0.1442,0.148,0.1475,0.1393,0.1386,0.1381,0.1447,0.1348,0.1346,0.1344,0.141,0.1414,0.1417,0,0,0,0,0,0,0.1601,0.1604,0.1591,0.1581,0.1576,0.1526,0.1536,0.1524,0.1508,0.1453,0.1441,0.1478,0.1392,0.1384,0.1398,0.1441,0.1345,0.1343,0.1406,0.1411,0.1415,0.1543,0,0,0,0,0,0,0.1601,0.1605,0.1612,0.1584,0.1578,0.1588,0.1537,0.1523,0.1516,0.1508,0.1448,0.1438,0.139,0.1402,0.1396,0.1436,0.1341,0.1402,0.1408,0.1414,0.1535,0.1551,0.1566,0,0,0,0,0,0.16,0.1611,0.1613,0.1615,0.1594,0.1589,0.1581,0.1534,0.1517,0.1515,0.1495,0.144,0.1434,0.1402,0.1395,0.1435,0.14,0.1407,0.1413,0.1528,0.1548,0.1565,0,0,0,0,0,0,0.1596,0.1603,0.1603,0.1615,0.1613,0.1576,0.1563,0.1552,0.1532,0.1525,0.1475,0.1465,0.1493,0.1458,0.1425,0.1476,0.141,0.1416,0.15,0.1518,0.1534,0.1505,0.1339,0,0,0,0,0,0.1608,0.1618,0.1622,0.1631,0.1633,0.1608,0.1599,0.1581,0.1566,0.1553,0.1527,0.151,0.1516,0.1512,0.1498,0.1526,0.151,0.1551,0.1567,0.158,0.1555,0.1599,0.1616,0.144,0.144,0.144,0,0,0.1609,0.1615,0.162,0.1632,0.1618,0.1628,0.1596,0.1595,0.161,0.1552,0.1563,0.1559,0.1537,0.1567,0.1577,0.1542,0.1633,0.1589,0.16,0.1567,0.1608,0.1625,0.164,0.1444,0.1444,0.1443,0,0,0.1614,0.1626,0.1635,0.1643,0.1649,0.1642,0.1656,0.1646,0.1644,0.1672,0.1646,0.1674,0.1666,0.1665,0.1664,0.176,0.1714,0.1767,0.1815,0.1861,0.1875,0.1887,0.1932,0.1947,0.1773,0.1774,0.1774,0,0.1615,0.1633,0.1636,0.1651,0.166,0.1661,0.1678,0.1685,0.1687,0.17,0.169,0.1722,0.171,0.1756,0.1791,0.1791,0.1806,0.1746,0.1879,0.1891,0.19,0.1943,0.1958,0.178,0.178,0.1779,0.1778,0,0.1627,0.1647,0.1653,0.1679,0.1692,0.1706,0.1732,0.1751,0.1766,0.1776,0.183,0.1835,0.1846,0.1874,0.1856,0.1933,0.1921,0.1896,0.1827,0.1926,0.1965,0.1978,0.1791,0.1788,0.1786,0.1784,0,0,0.1611,0.1654,0.1657,0.167,0.171,0.1716,0.1767,0.1803,0.1827,0.1865,0.1905,0.1954,0.1958,0.1958,0.1966,0.2008,0.212,0.1986,0.1985,0.202,0.2229,0.2281,0.2299,0.2123,0.2125,0.2127,0.2244,0,0.1616,0.1647,0.1678,0.171,0.1721,0.1757,0.1802,0.184,0.1873,0.1913,0.1958,0.1989,0.1994,0.201,0.2066,0.2089,0.2152,0.209,0.2134,0.2135,0.2161,0.2315,0.2351,0.2463,0.2256,0.2258,0.2259,0,0.1604,0.1631,0.1662,0.1717,0.1728,0.1754,0.1808,0.1848,0.1916,0.1948,0.2002,0.2025,0.2102,0.2087,0.22,0.2163,0.2206,0.2231,0.2236,0.2233,0.221,0.2324,0.2493,0.2459,0.2278,0.2276,0.2275,0,0.155,0.1612,0.1635,0.1652,0.1721,0.1744,0.178,0.1846,0.1882,0.1954,0.199,0.2078,0.2122,0.2193,0.2268,0.2237,0.2388,0.2349,0.2442,0.2445,0.2454,0.2455,0.2577,0.2436,0.2436,0.2436,0.2435,0,0.1524,0.1539,0.1607,0.1612,0.1645,0.1705,0.1743,0.1791,0.1868,0.1915,0.1994,0.2052,0.2149,0.2246,0.2301,0.2435,0.2427,0.2476,0.2492,0.2507,0.2511,0.2457,0.2379,0.244,0.2439,0.2438,0.2437,0,0.1447,0.1495,0.1514,0.1588,0.161,0.1622,0.1703,0.1734,0.1817,0.1881,0.1907,0.2045,0.2185,0.2299,0.2424,0.2484,0.2568,0.2629,0.2646,0.2663,0.2703,0.2629,0.2647,0.262,0.2753,0.2755,0.2757,0,0.1403,0.1407,0.1469,0.1484,0.1513,0.1552,0.1587,0.1682,0.1723,0.1875,0.1905,0.2068,0.2191,0.2432,0.2583,0.2742,0.2653,0.2843,0.2789,0.2745,0.2674,0.2555,0.2521,0.2867,0.2869,0.2872,0.2873,0,0.133,0.1352,0.1379,0.1405,0.1433,0.1474,0.153,0.1561,0.1684,0.1764,0.1894,0.2007,0.2292,0.2498,0.2736,0.2835,0.2777,0.2891,0.2846,0.2785,0.266,0.2629,0.2737,0.2892,0.289,0.2889,0.2888,0.2887,0.1271,0.1271,0.1309,0.1333,0.1362,0.1397,0.1419,0.1506,0.1582,0.1717,0.1839,0.2022,0.2341,0.2699,0.2849,0.3068,0.2906,0.3031,0.2952,0.2843,0.2795,0.2952,0.3117,0.3116,0.3116,0.3116,0.3115,0,0.1202,0.1223,0.1242,0.1273,0.1281,0.1325,0.1388,0.1419,0.1502,0.1659,0.179,0.2108,0.2423,0.2736,0.3072,0.3114,0.3068,0.306,0.2895,0.2864,0.3039,0.3024,0.3176,0.3176,0.3176,0.3176,0.3176,0.3176,0.1168,0.1169,0.1192,0.1194,0.1214,0.1222,0.1251,0.1321,0.1423,0.1608,0.1791,0.1955,0.2307,0.2769,0.3053,0.3073,0.2935,0.2879,0.2794,0.2912,0.2902,0.2892,0.2865,0.2981,0.298,0.2631,0.2628,0.2626]},{"header":{"parameterUnit":"m.s-1","parameterCategory":2,"la1":30.2991,"la2":30.254,"lo1":-89.0895,"lo2":-89.0444,"dy":0.0017,"dx":0.0017,"nx":28,"ny":28,"refTime":"2024-07-11T21:00:00:Z","depth":"0","parameterNumber":3,"parameterNumberName":"V-component_of_CURRENTS"},"data":[0,0,0,0,0,0,0,0,0,0,0,0,0,0,0,0,0,0,0,0,0,0,0,0,0,0,0,0,0,0,0,0,0,0,0,0,0,0,0,0,0,0,0,0,0,0,0,0,0,0,0,0,0,0,0,0,0,0,-0.0778,-0.0777,0,-0.0714,-0.0713,-0.0712,-0.068,-0.068,-0.068,-0.0681,-0.0695,-0.0695,-0.0695,0,0,0,0,0,0,0,0,0,0,0,0,0,-0.0797,-0.0797,-0.0778,-0.0777,-0.0776,-0.0714,-0.0713,-0.0712,-0.068,-0.068,-0.0681,-0.0681,-0.0695,-0.0695,-0.0695,0,0,0,0,0,0,0,0,0,0,0,0,0,-0.0765,-0.0797,-0.0778,-0.0754,-0.0752,-0.0715,-0.0713,-0.0712,-0.068,-0.068,-0.0681,-0.0681,-0.0694,-0.0695,-0.0695,-0.0692,0,0,-0.0696,-0.0696,0,0,0,0,0,0,0,0,-0.0766,-0.0764,-0.0758,-0.0756,-0.0753,-0.0707,-0.0725,-0.071,-0.068,-0.0705,-0.0681,-0.0681,-0.0707,-0.0706,-0.069,-0.0693,-0.0693,-0.0696,-0.0696,-0.0696,-0.0697,0,0,0,0,0,0,0,-0.0769,-0.0766,-0.075,-0.0758,-0.0755,-0.0722,-0.0718,-0.0721,-0.0705,-0.0703,-0.0701,-0.0697,-0.0706,-0.0689,-0.069,-0.0693,-0.0696,-0.0696,-0.0697,-0.0697,-0.0681,-0.068,0,0,0,0,0,0,-0.0785,-0.0768,-0.0752,-0.0749,-0.0763,-0.0722,-0.0717,-0.072,-0.0704,-0.0701,-0.0697,-0.0696,-0.0689,-0.069,-0.0691,-0.0668,-0.0696,-0.0697,-0.0697,-0.0681,-0.068,-0.068,0,0,0,0,0,0,-0.0785,-0.0784,-0.0755,-0.0758,-0.0753,-0.0722,-0.0725,-0.0719,-0.0707,-0.0699,-0.0697,-0.0693,-0.0689,-0.069,-0.0678,-0.0669,-0.0697,-0.0697,-0.0682,-0.0681,-0.068,-0.0634,0,0,0,0,0,0,-0.0786,-0.0785,-0.0784,-0.076,-0.0753,-0.0724,-0.0724,-0.0717,-0.0705,-0.0703,-0.0695,-0.0696,-0.0689,-0.0678,-0.0679,-0.067,-0.0697,-0.0683,-0.0681,-0.068,-0.0637,-0.0632,-0.0628,0,0,0,0,0,-0.0787,-0.0775,-0.0785,-0.0782,-0.0756,-0.0723,-0.0715,-0.0693,-0.0705,-0.0687,-0.068,-0.0696,-0.0672,-0.0677,-0.0678,-0.067,-0.0683,-0.0682,-0.068,-0.0639,-0.0633,-0.0628,0,0,0,0,0,0,-0.0766,-0.0771,-0.078,-0.0767,-0.0749,-0.0718,-0.0696,-0.0699,-0.0678,-0.0682,-0.0684,-0.0682,-0.067,-0.0678,-0.0684,-0.0662,-0.0682,-0.0681,-0.065,-0.0645,-0.0641,-0.0627,-0.0698,0,0,0,0,0,-0.0769,-0.0768,-0.0763,-0.0747,-0.0743,-0.0728,-0.0713,-0.0705,-0.0688,-0.0679,-0.0674,-0.0672,-0.0663,-0.0661,-0.0654,-0.0643,-0.0653,-0.0641,-0.0636,-0.0632,-0.0622,-0.0626,-0.0621,-0.0675,-0.0675,-0.0675,0,0,-0.0754,-0.0756,-0.0753,-0.0744,-0.0729,-0.0701,-0.0718,-0.0694,-0.0671,-0.0687,-0.0653,-0.0658,-0.0658,-0.0634,-0.0631,-0.0641,-0.0622,-0.0631,-0.0627,-0.0619,-0.0624,-0.0619,-0.0614,-0.0674,-0.0674,-0.0675,0,0,-0.0711,-0.073,-0.0713,-0.0699,-0.0687,-0.0679,-0.0679,-0.066,-0.0653,-0.0627,-0.0634,-0.0629,-0.0615,-0.0606,-0.0603,-0.0575,-0.06,-0.0583,-0.0548,-0.0552,-0.0548,-0.0544,-0.055,-0.0547,-0.058,-0.058,-0.058,0,-0.069,-0.0676,-0.0696,-0.067,-0.0655,-0.0672,-0.0642,-0.0629,-0.0606,-0.0602,-0.061,-0.0587,-0.0596,-0.0569,-0.0555,-0.0565,-0.0573,-0.0567,-0.0546,-0.0543,-0.054,-0.0547,-0.0544,-0.0578,-0.0578,-0.0578,-0.0579,0,-0.0633,-0.0621,-0.0605,-0.0589,-0.0575,-0.055,-0.055,-0.0537,-0.0545,-0.054,-0.0524,-0.0524,-0.0513,-0.0519,-0.0526,-0.0509,-0.0523,-0.0541,-0.0559,-0.0531,-0.0541,-0.0539,-0.0574,-0.0575,-0.0576,-0.0577,0,0,-0.0581,-0.0572,-0.0563,-0.0548,-0.0538,-0.0516,-0.0491,-0.0474,-0.0455,-0.0451,-0.0424,-0.0421,-0.0442,-0.044,-0.0458,-0.046,-0.0451,-0.0488,-0.0489,-0.0491,-0.046,-0.0473,-0.0473,-0.0467,-0.0466,-0.0466,-0.0475,0,-0.0527,-0.0477,-0.049,-0.0433,-0.0407,-0.0424,-0.0397,-0.0389,-0.0387,-0.0364,-0.0387,-0.037,-0.0407,-0.0404,-0.0412,-0.0437,-0.0443,-0.0447,-0.0487,-0.0488,-0.0502,-0.047,-0.0443,-0.0448,-0.0473,-0.0473,-0.0473,0,-0.0458,-0.0441,-0.0389,-0.0369,-0.0361,-0.0331,-0.0305,-0.0284,-0.0276,-0.0282,-0.0281,-0.0299,-0.0301,-0.0339,-0.0367,-0.0368,-0.0409,-0.0434,-0.0435,-0.046,-0.0498,-0.048,-0.0444,-0.0462,-0.047,-0.047,-0.047,0,-0.0399,-0.0363,-0.0327,-0.0314,-0.0295,-0.0276,-0.0265,-0.0253,-0.0234,-0.0228,-0.0216,-0.0231,-0.023,-0.0276,-0.0335,-0.0351,-0.0365,-0.0399,-0.045,-0.0451,-0.0441,-0.0443,-0.0424,-0.0421,-0.0421,-0.0421,-0.0421,0,-0.0329,-0.0292,-0.0294,-0.0264,-0.0218,-0.0228,-0.0177,-0.0173,-0.0159,-0.0125,-0.0172,-0.0145,-0.0214,-0.0234,-0.0303,-0.0361,-0.0346,-0.0431,-0.0449,-0.0425,-0.0425,-0.0453,-0.0491,-0.0422,-0.0422,-0.0422,-0.0421,0,-0.0253,-0.0255,-0.0206,-0.0192,-0.0182,-0.0144,-0.0117,-0.0082,-0.0091,-0.0043,-0.0041,-0.0069,-0.01,-0.0171,-0.0236,-0.0313,-0.0425,-0.0404,-0.0371,-0.0386,-0.0461,-0.0499,-0.0643,-0.0711,-0.0459,-0.046,-0.046,0,-0.0204,-0.0176,-0.0146,-0.0117,-0.0104,-0.0062,-0.0033,-0.0037,-0.0004,0.0011,0.0041,0.0019,0.0021,-0.0085,-0.0215,-0.0327,-0.0422,-0.0395,-0.0428,-0.0446,-0.0502,-0.0631,-0.0688,-0.0397,-0.0396,-0.0396,-0.0396,0,-0.0119,-0.0117,-0.0085,-0.0034,0.0006,0.0049,0.0088,0.012,0.012,0.0154,0.0189,0.0192,0.0081,0.0008,-0.016,-0.0271,-0.0461,-0.0396,-0.0416,-0.0446,-0.0585,-0.0664,-0.0414,-0.0394,-0.0394,-0.0394,-0.0394,-0.0394,-0.0059,-0.0024,0.0003,0.0056,0.0099,0.0153,0.0202,0.0236,0.0294,0.036,0.0338,0.0386,0.0251,0.003,-0.014,-0.0373,-0.047,-0.0426,-0.047,-0.0599,-0.0669,-0.0418,-0.0422,-0.0422,-0.0423,-0.0423,-0.0423,0,0.0008,0.0035,0.0089,0.0149,0.0207,0.021,0.0277,0.0328,0.0408,0.0489,0.0541,0.0566,0.039,0.0161,-0.0141,-0.0351,-0.055,-0.0472,-0.0607,-0.0662,-0.0403,-0.0398,-0.0396,-0.0396,-0.0396,-0.0396,-0.0396,-0.0396,0.0048,0.0103,0.0124,0.0229,0.0272,0.0352,0.0395,0.0469,0.0541,0.0688,0.0782,0.0831,0.0757,0.0221,-0.0175,-0.034,-0.0578,-0.0679,-0.0783,-0.0517,-0.0515,-0.0513,-0.0514,-0.0535,-0.0536,-0.1052,-0.1056,-0.1059]}],[{"header":{"parameterUnit":"m.s-1","parameterCategory":2,"la1":30.2991,"la2":30.254,"lo1":-89.0895,"lo2":-89.0444,"dy":0.0017,"dx":0.0017,"nx":28,"ny":28,"refTime":"2024-07-11T21:00:00:Z","depth":"2","parameterNumber":2,"parameterNumberName":"U-component_of_CURRENTS"},"data":[0,0,0,0,0,0,0,0,0,0,0,0,0,0,0,0,0,0,0,0,0,0,0,0,0,0,0,0,0,0,0,0,0,0,0,0,0,0,0,0,0,0,0,0,0,0,0,0,0,0,0,0,0,0,0,0,0,0,-0.0067,-0.0067,0,-0.0061,-0.0062,-0.0062,-0.0043,-0.0043,-0.0042,-0.0041,-0.0012,-0.0011,-0.0011,0,0,0,0,0,0,0,0,0,0,0,0,0,-0.0099,-0.0099,-0.0067,-0.0067,-0.0067,-0.0061,-0.0062,-0.0062,-0.0043,-0.0043,-0.0042,-0.0041,-0.0012,-0.0011,-0.0011,0,0,0,0,0,0,0,0,0,0,0,0,0,-0.009,-0.0098,-0.0067,-0.0056,-0.0054,-0.0061,-0.0062,-0.0062,-0.0043,-0.0042,-0.0042,-0.0041,-0.0012,-0.0011,-0.0011,-0.0026,0,0,-0.001,-0.001,0,0,0,0,0,0,0,0,-0.0091,-0.0089,-0.0058,-0.0056,-0.0055,-0.005,-0.0062,-0.0048,-0.0044,-0.005,-0.0041,-0.004,-0.0022,-0.0021,-0.0024,-0.0025,-0.0023,-0.001,-0.001,-0.0009,-0.0009,0,0,0,0,0,0,0,-0.0091,-0.009,-0.0067,-0.0057,-0.0056,-0.0063,-0.0061,-0.0059,-0.0042,-0.0049,-0.0047,-0.0044,-0.0021,-0.0025,-0.0023,-0.0023,-0.001,-0.0009,-0.0009,-0.0009,0.004,0.0041,0,0,0,0,0,0,-0.0087,-0.009,-0.0067,-0.0067,-0.0069,-0.0063,-0.006,-0.0054,-0.0042,-0.0039,-0.0045,-0.0043,-0.0026,-0.0024,-0.0022,0.004,-0.0009,-0.0009,-0.0009,0.0039,0.004,0.0041,0,0,0,0,0,0,-0.0088,-0.0085,-0.0067,-0.0077,-0.0075,-0.0063,-0.0057,-0.0055,-0.0034,-0.0039,-0.0035,-0.0022,-0.0025,-0.0023,0.0002,0.0039,-0.0009,-0.0009,0.0038,0.0039,0.0041,0.0115,0,0,0,0,0,0,-0.0089,-0.0086,-0.0073,-0.0076,-0.0074,-0.0044,-0.0057,-0.0055,-0.0034,-0.0031,-0.0019,-0.0017,-0.0024,0.0002,0.0003,0.0038,-0.0008,0.0036,0.0038,0.004,0.0111,0.0119,0.0125,0,0,0,0,0,-0.009,-0.0071,-0.0072,-0.0069,-0.0059,-0.0043,-0.0042,-0.0033,-0.0033,-0.0013,-0.001,-0.0016,0.0016,0.0003,0.0004,0.0041,0.0035,0.0038,0.004,0.0108,0.0117,0.0125,0,0,0,0,0,0,-0.008,-0.0068,-0.0068,-0.0047,-0.0035,-0.0038,-0.0016,-0.0019,-0.0004,0.001,-0.0005,-0.0003,0.0032,0.0023,0.0009,0.0059,0.0026,0.0028,0.0077,0.0085,0.0093,0.0111,-0.0008,0,0,0,0,0,-0.0073,-0.005,-0.0047,-0.0027,-0.0015,-0.0015,-0.0005,0.0005,0.0013,0.0022,0.0024,0.0031,0.0036,0.0052,0.0054,0.0082,0.0096,0.0106,0.0113,0.012,0.0134,0.0178,0.0191,0.0049,0.0049,0.0049,0,0,-0.0064,-0.0054,-0.0041,-0.0022,-0.001,0.0012,-0.0005,0.003,0.0051,0.0023,0.006,0.0055,0.0047,0.0079,0.0095,0.0082,0.017,0.0123,0.0128,0.014,0.0182,0.0196,0.0209,0.0051,0.0051,0.0051,0,0,-0.0026,-0.0021,0.0016,0.0027,0.0057,0.0054,0.007,0.0084,0.0099,0.0129,0.0111,0.0131,0.0143,0.0145,0.0145,0.0193,0.0201,0.0196,0.0257,0.0299,0.0312,0.0323,0.0374,0.0388,0.0206,0.0206,0.0207,0,-0.0012,0.0022,0.0029,0.0064,0.0074,0.0077,0.011,0.0123,0.0143,0.016,0.016,0.0184,0.0176,0.0207,0.0224,0.0212,0.0241,0.0225,0.0311,0.0322,0.0332,0.0381,0.0397,0.021,0.021,0.0209,0.0209,0,0.0055,0.0075,0.0099,0.0137,0.0151,0.0183,0.0195,0.0222,0.0236,0.0246,0.0292,0.0285,0.0305,0.0301,0.028,0.0342,0.0343,0.0311,0.0293,0.0351,0.0399,0.0414,0.0216,0.0214,0.0213,0.0212,0,0,0.0111,0.0138,0.015,0.0166,0.019,0.0213,0.025,0.0283,0.0323,0.0349,0.04,0.0407,0.0416,0.0416,0.0397,0.0429,0.0522,0.0411,0.0411,0.0469,0.0639,0.0677,0.0696,0.0512,0.0515,0.0517,0.0649,0,0.0164,0.0218,0.0222,0.0271,0.0295,0.0296,0.0329,0.0362,0.0389,0.0442,0.0454,0.0499,0.0456,0.0485,0.0511,0.0515,0.0563,0.0491,0.0567,0.0569,0.0602,0.0715,0.05,0.0603,0.0663,0.0666,0.0668,0,0.0242,0.0258,0.0309,0.0329,0.0345,0.0385,0.0438,0.0469,0.0525,0.0554,0.0599,0.0606,0.066,0.0616,0.0687,0.0648,0.0661,0.0661,0.0665,0.0687,0.0636,0.055,0.0628,0.0692,0.0691,0.0689,0.0687,0,0.0284,0.0324,0.036,0.0368,0.0397,0.0441,0.0472,0.0522,0.0566,0.0644,0.0697,0.0739,0.0796,0.0811,0.082,0.0769,0.0904,0.0826,0.0874,0.0876,0.0701,0.0685,0.0893,0.0893,0.0893,0.0893,0.0892,0,0.0327,0.0371,0.0396,0.0416,0.0491,0.05,0.0594,0.0625,0.0692,0.0757,0.0776,0.0844,0.0853,0.0914,0.089,0.0961,0.0972,0.0926,0.0929,0.0723,0.0708,0.0775,0.076,0.0897,0.0896,0.0895,0.0895,0,0.0379,0.039,0.0443,0.0484,0.0515,0.0581,0.0672,0.0721,0.0789,0.0878,0.0914,0.0973,0.1068,0.1078,0.1125,0.1082,0.1114,0.1128,0.0902,0.0878,0.1034,0.102,0.1199,0.1202,0.1204,0.1206,0.1208,0,0.042,0.0442,0.0499,0.0541,0.0578,0.0669,0.0718,0.078,0.0822,0.0948,0.0984,0.1118,0.1182,0.1293,0.1216,0.1228,0.1248,0.1077,0.0937,0.109,0.1073,0.1056,0.104,0.0727,0.0725,0.0723,0.0721,0,0.0478,0.0498,0.0521,0.0587,0.0657,0.0724,0.0801,0.0843,0.0906,0.0987,0.109,0.1163,0.1245,0.1169,0.1206,0.1158,0.1055,0.1044,0.1271,0.0701,0.066,0.0639,0.0635,0.0704,0.0706,0.0707,0.0708,0.0709,0.0527,0.0551,0.0561,0.0633,0.0697,0.0748,0.0802,0.0854,0.0927,0.0988,0.1074,0.1097,0.0997,0.0948,0.097,0.0985,0.102,0.0912,0.091,0.0912,0.0852,0.082,0.0882,0.0885,0.0887,0.0889,0.0891,0,0.0546,0.0557,0.0604,0.0659,0.0703,0.076,0.0819,0.0825,0.0888,0.0903,0.097,0.0752,0.0704,0.073,0.0686,0.0702,0.0615,0.0723,0.0547,0.0561,0.0575,0.0492,0.0431,0.0431,0.0431,0.0432,0,0,0.0546,0.0565,0.0568,0.0633,0.0697,0.0754,0.0791,0.0787,0.0766,0.0723,0.0675,0.0582,0.0577,0.0415,0.0411,0.0462,0.0518,0.0446,0.0781,0.0579,0.0594,0.0621,0.0505,0,0,0,0,0]},{"header":{"parameterUnit":"m.s-1","parameterCategory":2,"la1":30.2991,"la2":30.254,"lo1":-89.0895,"lo2":-89.0444,"dy":0.0017,"dx":0.0017,"nx":28,"ny":28,"refTime":"2024-07-11T21:00:00:Z","depth":"2","parameterNumber":3,"parameterNumberName":"V-component_of_CURRENTS"},"data":[0,0,0,0,0,0,0,0,0,0,0,0,0,0,0,0,0,0,0,0,0,0,0,0,0,0,0,0,0,0,0,0,0,0,0,0,0,0,0,0,0,0,0,0,0,0,0,0,0,0,0,0,0,0,0,0,0,0,-0.0103,-0.0103,0,-0.0122,-0.0121,-0.0121,-0.0172,-0.0173,-0.0175,-0.0176,-0.0213,-0.0213,-0.0212,0,0,0,0,0,0,0,0,0,0,0,0,0,-0.003,-0.0031,-0.0103,-0.0103,-0.0104,-0.0122,-0.0121,-0.0121,-0.0172,-0.0173,-0.0175,-0.0177,-0.0213,-0.0213,-0.0212,0,0,0,0,0,0,0,0,0,0,0,0,0,-0.0052,-0.0031,-0.0103,-0.0134,-0.0138,-0.0122,-0.0121,-0.0121,-0.0171,-0.0173,-0.0176,-0.0178,-0.0213,-0.0213,-0.0212,-0.0164,0,0,-0.021,-0.021,0,0,0,0,0,0,0,0,-0.0051,-0.0054,-0.0129,-0.0132,-0.0136,-0.015,-0.0109,-0.0138,-0.0171,-0.0154,-0.0176,-0.0179,-0.0195,-0.0196,-0.0188,-0.0166,-0.0167,-0.021,-0.021,-0.021,-0.0209,0,0,0,0,0,0,0,-0.0049,-0.0053,-0.0106,-0.013,-0.0134,-0.012,-0.0126,-0.0114,-0.0159,-0.0155,-0.016,-0.0168,-0.0197,-0.0188,-0.019,-0.0168,-0.021,-0.021,-0.0209,-0.0209,-0.0201,-0.0201,0,0,0,0,0,0,-0.0058,-0.0052,-0.0105,-0.0107,-0.0103,-0.012,-0.0127,-0.014,-0.0159,-0.0165,-0.0167,-0.0171,-0.0188,-0.019,-0.0191,-0.0209,-0.021,-0.0209,-0.0209,-0.0201,-0.0201,-0.0201,0,0,0,0,0,0,-0.0056,-0.0062,-0.0105,-0.0083,-0.0088,-0.012,-0.0134,-0.0139,-0.016,-0.0168,-0.0174,-0.0186,-0.019,-0.0192,-0.0208,-0.0209,-0.0209,-0.0208,-0.0201,-0.0201,-0.0201,-0.0199,0,0,0,0,0,0,-0.0054,-0.0061,-0.0077,-0.0084,-0.009,-0.0107,-0.0132,-0.0138,-0.0162,-0.0168,-0.0185,-0.0189,-0.0192,-0.0209,-0.0208,-0.0208,-0.0208,-0.02,-0.0201,-0.0201,-0.0199,-0.0199,-0.0199,0,0,0,0,0,-0.0051,-0.0059,-0.0077,-0.0084,-0.0109,-0.0107,-0.0108,-0.0135,-0.0161,-0.0162,-0.0186,-0.019,-0.021,-0.0209,-0.0207,-0.0207,-0.02,-0.0201,-0.0201,-0.0199,-0.0199,-0.0199,0,0,0,0,0,0,-0.0036,-0.0065,-0.0086,-0.0105,-0.0114,-0.0118,-0.0127,-0.0142,-0.0159,-0.0178,-0.0188,-0.0192,-0.0206,-0.0206,-0.0204,-0.0207,-0.0207,-0.0206,-0.0206,-0.0206,-0.0206,-0.0201,-0.0207,0,0,0,0,0,-0.0039,-0.0057,-0.0076,-0.0092,-0.01,-0.0116,-0.0123,-0.0141,-0.0155,-0.0166,-0.0184,-0.0199,-0.0197,-0.0205,-0.0205,-0.0201,-0.0213,-0.0202,-0.0202,-0.0203,-0.0198,-0.0228,-0.023,-0.0202,-0.0202,-0.0202,0,0,-0.0033,-0.0058,-0.0066,-0.009,-0.0103,-0.0099,-0.0125,-0.0141,-0.0141,-0.0165,-0.0184,-0.0199,-0.0197,-0.0199,-0.0205,-0.0205,-0.0216,-0.0203,-0.0203,-0.0198,-0.0228,-0.0231,-0.0234,-0.0202,-0.0202,-0.0202,0,0,-0.0018,-0.0058,-0.006,-0.0068,-0.0096,-0.0103,-0.0113,-0.0133,-0.015,-0.0163,-0.0181,-0.0203,-0.0206,-0.0205,-0.0201,-0.02,-0.0216,-0.0205,-0.0201,-0.023,-0.0233,-0.0235,-0.0251,-0.0255,-0.0206,-0.0206,-0.0206,0,-0.0014,-0.0026,-0.0057,-0.0058,-0.0064,-0.0105,-0.0095,-0.0107,-0.0133,-0.0142,-0.0175,-0.0193,-0.0203,-0.0188,-0.0198,-0.0199,-0.022,-0.02,-0.0231,-0.0234,-0.0236,-0.0252,-0.0256,-0.0206,-0.0206,-0.0206,-0.0206,0,0.0012,-0.0005,-0.0008,-0.0026,-0.0029,-0.0036,-0.0054,-0.0073,-0.0111,-0.0125,-0.0147,-0.0171,-0.0183,-0.019,-0.0196,-0.0209,-0.0219,-0.0228,-0.0231,-0.0239,-0.0255,-0.0259,-0.0206,-0.0206,-0.0206,-0.0206,0,0,0.0034,0.0016,0.001,0.0006,-0.0018,-0.0017,-0.0021,-0.0028,-0.0035,-0.0084,-0.009,-0.0113,-0.0152,-0.0151,-0.0169,-0.0199,-0.0241,-0.0228,-0.023,-0.0244,-0.0306,-0.025,-0.025,-0.0267,-0.0268,-0.0268,-0.0309,0,0.0058,0.0061,0.0053,0.0059,0.0057,0.0031,0.0039,0.0023,-0.0007,-0.0028,-0.0069,-0.0086,-0.0127,-0.0146,-0.0183,-0.0223,-0.0254,-0.0229,-0.0295,-0.0297,-0.0247,-0.0254,-0.0244,-0.0274,-0.0313,-0.0314,-0.0315,0,0.0081,0.0076,0.0086,0.0087,0.0087,0.0088,0.0079,0.0083,0.0055,0.003,-0.0009,-0.0044,-0.0087,-0.013,-0.0212,-0.0201,-0.0256,-0.0293,-0.0296,-0.0246,-0.0249,-0.0273,-0.0281,-0.0322,-0.0322,-0.0321,-0.0321,0,0.009,0.0098,0.01,0.0098,0.0098,0.0099,0.0099,0.0086,0.0091,0.0055,0.0045,-0.0014,-0.0047,-0.0129,-0.0212,-0.0226,-0.0302,-0.0324,-0.032,-0.0317,-0.0319,-0.0314,-0.0385,-0.0385,-0.0385,-0.0385,-0.0385,0,0.0102,0.0102,0.0097,0.0091,0.0106,0.0105,0.0113,0.0109,0.0103,0.0114,0.0064,0.0061,-0.0056,-0.0109,-0.0198,-0.0263,-0.0293,-0.0315,-0.0323,-0.0316,-0.031,-0.0359,-0.0356,-0.0386,-0.0386,-0.0386,-0.0386,0,0.0096,0.0091,0.0095,0.0097,0.01,0.0103,0.0119,0.0131,0.0126,0.0137,0.0127,0.0099,0.0038,-0.0057,-0.0173,-0.0224,-0.0301,-0.0317,-0.0288,-0.0291,-0.0303,-0.0299,-0.0321,-0.0319,-0.0318,-0.0317,-0.0316,0,0.0085,0.0082,0.0092,0.0099,0.0093,0.01,0.0114,0.0124,0.0146,0.0169,0.0184,0.0145,0.015,0.0029,-0.0075,-0.0185,-0.0258,-0.0263,-0.0276,-0.0291,-0.0297,-0.0295,-0.0293,-0.0289,-0.0288,-0.0287,-0.0287,0,0.0072,0.0073,0.0089,0.0102,0.011,0.0134,0.0155,0.0182,0.0209,0.0245,0.0293,0.0309,0.0228,0.0132,0.0,-0.0075,-0.0242,-0.0244,-0.0286,-0.0287,-0.0258,-0.0265,-0.0265,-0.0279,-0.0279,-0.028,-0.028,-0.0281,0.0067,0.0082,0.0105,0.0125,0.0142,0.0181,0.0218,0.0266,0.0333,0.0428,0.0417,0.0424,0.0253,0.0112,0.0003,-0.0119,-0.0116,-0.0218,-0.0223,-0.0228,-0.0196,-0.0165,-0.0162,-0.0162,-0.0162,-0.0162,-0.0163,0,0.0081,0.0105,0.0128,0.0168,0.0206,0.0202,0.0267,0.0338,0.0446,0.0474,0.0559,0.0376,0.0303,0.01,-0.0039,-0.011,-0.0129,-0.0181,-0.0225,-0.0231,-0.0237,-0.0208,-0.0176,-0.0177,-0.0177,-0.0178,0,0,0.0093,0.0132,0.0158,0.0226,0.0252,0.0317,0.0363,0.0478,0.0507,0.0551,0.0501,0.0534,0.0251,0.01,-0.0014,-0.0102,-0.0143,-0.0107,-0.0083,-0.0126,-0.0131,-0.0241,-0.02,0,0,0,0,0]}],[{"header":{"parameterUnit":"m.s-1","parameterCategory":2,"la1":30.2991,"la2":30.254,"lo1":-89.0895,"lo2":-89.0444,"dy":0.0017,"dx":0.0017,"nx":28,"ny":28,"refTime":"2024-07-11T21:00:00:Z","depth":"4","parameterNumber":2,"parameterNumberName":"U-component_of_CURRENTS"},"data":[0,0,0,0,0,0,0,0,0,0,0,0,0,0,0,0,0,0,0,0,0,0,0,0,0,0,0,0,0,0,0,0,0,0,0,0,0,0,0,0,0,0,0,0,0,0,0,0,0,0,0,0,0,0,0,0,0,0,-0.0229,-0.023,0,-0.029,-0.0291,-0.0292,-0.0361,-0.0362,-0.0362,-0.0363,-0.0433,-0.0434,-0.0435,0,0,0,0,0,0,0,0,0,0,0,0,0,-0.0195,-0.0195,-0.0229,-0.023,-0.0231,-0.029,-0.0291,-0.0292,-0.036,-0.0362,-0.0363,-0.0364,-0.0433,-0.0434,-0.0435,0,0,0,0,0,0,0,0,0,0,0,0,0,-0.0229,-0.0195,-0.0229,-0.0271,-0.0276,-0.029,-0.0291,-0.0292,-0.036,-0.0362,-0.0363,-0.0364,-0.0433,-0.0434,-0.0435,-0.0416,0,0,-0.044,-0.0441,0,0,0,0,0,0,0,0,-0.0227,-0.023,-0.0265,-0.0269,-0.0273,-0.0318,-0.0304,-0.0334,-0.036,-0.0329,-0.0363,-0.0365,-0.0394,-0.0399,-0.0408,-0.042,-0.0423,-0.044,-0.0441,-0.0442,-0.0442,0,0,0,0,0,0,0,-0.0224,-0.0228,-0.0254,-0.0265,-0.027,-0.0295,-0.0301,-0.031,-0.0354,-0.0332,-0.0337,-0.0342,-0.0397,-0.0407,-0.041,-0.0424,-0.044,-0.0441,-0.0442,-0.0443,-0.0524,-0.0526,0,0,0,0,0,0,-0.0212,-0.0225,-0.0252,-0.0256,-0.0252,-0.0294,-0.0301,-0.0303,-0.0354,-0.0362,-0.034,-0.0345,-0.0403,-0.0409,-0.0413,-0.0495,-0.0442,-0.0443,-0.0444,-0.0523,-0.0525,-0.0526,0,0,0,0,0,0,-0.0211,-0.0214,-0.025,-0.0242,-0.0248,-0.0293,-0.0295,-0.0304,-0.0341,-0.036,-0.0369,-0.0371,-0.0405,-0.0411,-0.0449,-0.0494,-0.0444,-0.0445,-0.0522,-0.0524,-0.0525,-0.0593,0,0,0,0,0,0,-0.021,-0.0213,-0.0221,-0.0241,-0.0248,-0.0268,-0.0294,-0.0304,-0.0339,-0.0346,-0.0389,-0.0395,-0.0406,-0.0447,-0.045,-0.0495,-0.0446,-0.052,-0.0523,-0.0525,-0.0589,-0.0596,-0.0603,0,0,0,0,0,-0.0208,-0.0215,-0.0221,-0.0225,-0.0254,-0.0268,-0.0274,-0.0311,-0.034,-0.0352,-0.0391,-0.0395,-0.0465,-0.0448,-0.0452,-0.0499,-0.0519,-0.0522,-0.0525,-0.0585,-0.0595,-0.0603,0,0,0,0,0,0,-0.0209,-0.0223,-0.023,-0.0242,-0.0256,-0.028,-0.03,-0.0322,-0.0362,-0.0384,-0.0404,-0.0413,-0.0467,-0.0464,-0.0446,-0.0529,-0.0495,-0.0499,-0.054,-0.0549,-0.0556,-0.055,-0.0447,0,0,0,0,0,-0.0208,-0.0216,-0.0228,-0.0239,-0.0248,-0.0277,-0.0293,-0.0319,-0.035,-0.0371,-0.0407,-0.0444,-0.0475,-0.0498,-0.0521,-0.0556,-0.0524,-0.059,-0.0598,-0.0604,-0.0601,-0.0612,-0.0619,-0.0536,-0.0536,-0.0536,0,0,-0.021,-0.022,-0.0225,-0.024,-0.0259,-0.0268,-0.0292,-0.0324,-0.0346,-0.037,-0.0429,-0.0469,-0.0489,-0.0542,-0.0566,-0.055,-0.0602,-0.0608,-0.0613,-0.0606,-0.0615,-0.0623,-0.0631,-0.0538,-0.0537,-0.0537,0,0,-0.021,-0.0229,-0.0231,-0.0243,-0.0271,-0.0285,-0.0296,-0.0338,-0.0374,-0.0423,-0.0456,-0.0516,-0.0564,-0.0594,-0.0611,-0.0664,-0.0639,-0.0687,-0.0724,-0.0735,-0.0742,-0.0748,-0.0674,-0.0673,-0.0694,-0.0694,-0.0694,0,-0.0214,-0.0217,-0.0235,-0.0242,-0.0258,-0.0291,-0.0302,-0.0331,-0.0388,-0.0417,-0.0451,-0.0553,-0.0585,-0.0636,-0.068,-0.0681,-0.066,-0.0692,-0.0744,-0.075,-0.0754,-0.0678,-0.0676,-0.0697,-0.0697,-0.0697,-0.0696,0,-0.0208,-0.0219,-0.0226,-0.024,-0.0259,-0.0279,-0.0312,-0.0356,-0.0414,-0.0443,-0.053,-0.0591,-0.0653,-0.0686,-0.0711,-0.0772,-0.0733,-0.0751,-0.0721,-0.0767,-0.0683,-0.0679,-0.0702,-0.0701,-0.07,-0.0699,0,0,-0.02,-0.0215,-0.0222,-0.0229,-0.0267,-0.028,-0.0324,-0.0361,-0.0397,-0.048,-0.0531,-0.0634,-0.0691,-0.0714,-0.0765,-0.0796,-0.0817,-0.081,-0.0809,-0.0732,-0.0791,-0.0693,-0.0678,-0.0864,-0.0865,-0.0866,-0.0702,0,-0.0192,-0.0193,-0.0213,-0.0231,-0.0236,-0.0286,-0.032,-0.0367,-0.0425,-0.0481,-0.0558,-0.063,-0.069,-0.0758,-0.08,-0.0824,-0.082,-0.0856,-0.0761,-0.0756,-0.0663,-0.0676,-0.0868,-0.0699,-0.0698,-0.0698,-0.0697,0,-0.0182,-0.0186,-0.0199,-0.0229,-0.0241,-0.0274,-0.0344,-0.0382,-0.045,-0.0503,-0.0587,-0.0636,-0.0715,-0.0765,-0.0797,-0.0827,-0.0817,-0.0816,-0.081,-0.0695,-0.0654,-0.0655,-0.069,-0.0691,-0.0691,-0.0692,-0.0692,0,-0.0165,-0.0179,-0.0193,-0.0205,-0.0245,-0.0295,-0.0339,-0.0408,-0.0437,-0.0535,-0.0559,-0.0646,-0.0693,-0.073,-0.0732,-0.079,-0.0708,-0.0773,-0.0642,-0.063,-0.0737,-0.0733,-0.0764,-0.0764,-0.0764,-0.0765,-0.0765,0,-0.0154,-0.0164,-0.0199,-0.0213,-0.0251,-0.0303,-0.0362,-0.042,-0.0484,-0.0493,-0.059,-0.0586,-0.0701,-0.0664,-0.0689,-0.0618,-0.0661,-0.063,-0.0597,-0.0761,-0.0762,-0.073,-0.0728,-0.0759,-0.076,-0.0761,-0.0762,0,-0.0144,-0.0157,-0.0173,-0.0227,-0.0248,-0.0297,-0.0366,-0.039,-0.047,-0.0486,-0.0518,-0.0541,-0.0517,-0.0529,-0.0532,-0.0528,-0.0489,-0.0436,-0.0517,-0.0493,-0.0413,-0.0417,-0.0318,-0.0314,-0.031,-0.0307,-0.0304,0,-0.0137,-0.0146,-0.0184,-0.0195,-0.0235,-0.0297,-0.0322,-0.0398,-0.0403,-0.0422,-0.04,-0.0387,-0.0396,-0.0273,-0.0323,-0.0292,-0.0308,-0.0257,-0.0449,-0.0397,-0.0375,-0.0385,-0.0393,-0.0298,-0.0297,-0.0296,-0.0295,0,-0.0132,-0.0155,-0.0166,-0.0183,-0.0218,-0.022,-0.0265,-0.0252,-0.0308,-0.0358,-0.0293,-0.0278,-0.0204,-0.0208,-0.015,-0.0146,-0.0303,-0.0219,-0.0231,-0.0412,-0.0371,-0.0355,-0.0368,-0.0282,-0.0284,-0.0285,-0.0286,0,-0.0136,-0.0136,-0.015,-0.0169,-0.0175,-0.0146,-0.0172,-0.0161,-0.0173,-0.0211,-0.0156,-0.0147,-0.0165,-0.0118,-0.0059,-0.0053,-0.0119,-0.0159,-0.0176,-0.019,-0.0235,-0.0171,0.0023,0,0,0,0,0,-0.0131,-0.0121,-0.0125,-0.0122,-0.0115,-0.012,-0.0116,-0.0133,-0.0162,-0.0109,-0.0152,-0.0091,-0.0056,-0.0023,-0.0005,-0.0016,-0.0111,0.0008,-0.0164,-0.0209,-0.0224,-0.0296,0,0,0,0,0,0,-0.0123,-0.0122,-0.0115,-0.0076,-0.006,-0.004,-0.0031,-0.0046,-0.0019,-0.0058,-0.0028,-0.0083,-0.0035,-0.0076,-0.0005,-0.0002,-0.0106,0.0002,0.0003,-0.02,-0.0214,-0.0226,-0.0305,0,0,0,0,0]},{"header":{"parameterUnit":"m.s-1","parameterCategory":2,"la1":30.2991,"la2":30.254,"lo1":-89.0895,"lo2":-89.0444,"dy":0.0017,"dx":0.0017,"nx":28,"ny":28,"refTime":"2024-07-11T21:00:00:Z","depth":"4","parameterNumber":3,"parameterNumberName":"V-component_of_CURRENTS"},"data":[0,0,0,0,0,0,0,0,0,0,0,0,0,0,0,0,0,0,0,0,0,0,0,0,0,0,0,0,0,0,0,0,0,0,0,0,0,0,0,0,0,0,0,0,0,0,0,0,0,0,0,0,0,0,0,0,0,0,-0.01,-0.01,0,-0.0107,-0.0107,-0.0107,-0.0086,-0.0085,-0.0085,-0.0084,-0.0071,-0.0071,-0.0071,0,0,0,0,0,0,0,0,0,0,0,0,0,-0.0079,-0.008,-0.01,-0.01,-0.01,-0.0107,-0.0107,-0.0107,-0.0086,-0.0085,-0.0085,-0.0084,-0.007,-0.0071,-0.0071,0,0,0,0,0,0,0,0,0,0,0,0,0,-0.0088,-0.008,-0.01,-0.009,-0.0089,-0.0107,-0.0107,-0.0107,-0.0086,-0.0085,-0.0084,-0.0083,-0.007,-0.0071,-0.0071,-0.0095,0,0,-0.0073,-0.0073,0,0,0,0,0,0,0,0,-0.0088,-0.0089,-0.0091,-0.0091,-0.009,-0.0094,-0.0094,-0.0102,-0.0087,-0.0088,-0.0084,-0.0083,-0.0077,-0.0077,-0.0082,-0.0095,-0.0094,-0.0073,-0.0073,-0.0073,-0.0073,0,0,0,0,0,0,0,-0.0087,-0.0089,-0.0103,-0.0091,-0.009,-0.0088,-0.0088,-0.0096,-0.0089,-0.0088,-0.0086,-0.0086,-0.0076,-0.0081,-0.0081,-0.0094,-0.0073,-0.0073,-0.0073,-0.0074,-0.0134,-0.0135,0,0,0,0,0,0,-0.0085,-0.0088,-0.0103,-0.0104,-0.0085,-0.0089,-0.009,-0.0094,-0.0089,-0.0087,-0.0087,-0.0085,-0.0081,-0.0081,-0.0081,-0.01,-0.0073,-0.0074,-0.0074,-0.0133,-0.0134,-0.0136,0,0,0,0,0,0,-0.0085,-0.0087,-0.0103,-0.0095,-0.0097,-0.0091,-0.0096,-0.0095,-0.0097,-0.0088,-0.0086,-0.009,-0.008,-0.008,-0.0096,-0.0099,-0.0074,-0.0074,-0.0131,-0.0133,-0.0135,-0.0145,0,0,0,0,0,0,-0.0084,-0.0087,-0.0095,-0.0095,-0.0097,-0.0114,-0.0097,-0.0096,-0.0098,-0.0096,-0.009,-0.0088,-0.0079,-0.0095,-0.0096,-0.01,-0.0075,-0.0129,-0.0132,-0.0134,-0.0143,-0.0147,-0.015,0,0,0,0,0,-0.0084,-0.0099,-0.0095,-0.0097,-0.0106,-0.0115,-0.0116,-0.0108,-0.0099,-0.0105,-0.0107,-0.0088,-0.0111,-0.0097,-0.0098,-0.0101,-0.0128,-0.0131,-0.0134,-0.0141,-0.0146,-0.015,0,0,0,0,0,0,-0.0093,-0.0098,-0.0094,-0.0109,-0.0111,-0.011,-0.0117,-0.0112,-0.0119,-0.0119,-0.0106,-0.0105,-0.0126,-0.0119,-0.0103,-0.013,-0.0116,-0.012,-0.0121,-0.0126,-0.013,-0.0128,-0.0075,0,0,0,0,0,-0.0099,-0.0112,-0.0112,-0.0124,-0.0125,-0.0122,-0.0125,-0.0123,-0.0127,-0.0128,-0.0124,-0.0128,-0.0142,-0.0136,-0.0153,-0.0161,-0.0155,-0.0166,-0.017,-0.0173,-0.0175,-0.0165,-0.0167,-0.0145,-0.0145,-0.0145,0,0,-0.0105,-0.011,-0.0116,-0.0127,-0.0126,-0.0141,-0.0122,-0.0131,-0.0149,-0.0127,-0.0149,-0.0149,-0.0154,-0.017,-0.0176,-0.0157,-0.0181,-0.0176,-0.0179,-0.0179,-0.0168,-0.0169,-0.0171,-0.0147,-0.0147,-0.0147,0,0,-0.0123,-0.0127,-0.0142,-0.0149,-0.0155,-0.0157,-0.0161,-0.0164,-0.017,-0.019,-0.0186,-0.0197,-0.02,-0.021,-0.0214,-0.0253,-0.0214,-0.0241,-0.024,-0.0229,-0.023,-0.0231,-0.0241,-0.0242,-0.0226,-0.0226,-0.0226,0,-0.0128,-0.0149,-0.0148,-0.0165,-0.0176,-0.0166,-0.0187,-0.0198,-0.0208,-0.0219,-0.02,-0.0227,-0.0229,-0.0255,-0.0255,-0.0262,-0.0238,-0.0216,-0.0231,-0.0232,-0.0232,-0.0242,-0.0243,-0.0227,-0.0227,-0.0227,-0.0227,0,-0.0157,-0.0175,-0.0184,-0.0204,-0.0219,-0.0234,-0.0248,-0.0263,-0.0262,-0.0266,-0.0292,-0.0292,-0.0296,-0.0299,-0.0278,-0.0284,-0.0262,-0.0247,-0.0212,-0.0234,-0.0244,-0.0245,-0.0228,-0.0228,-0.0228,-0.0227,0,0,-0.0164,-0.0196,-0.0202,-0.0216,-0.0242,-0.0256,-0.0294,-0.0321,-0.0339,-0.0341,-0.0362,-0.0375,-0.0346,-0.035,-0.0328,-0.0308,-0.0295,-0.0254,-0.0253,-0.0251,-0.0262,-0.0254,-0.0254,-0.0249,-0.0249,-0.0249,-0.0272,0,-0.0183,-0.0219,-0.024,-0.028,-0.0294,-0.0314,-0.0347,-0.0374,-0.0384,-0.04,-0.0402,-0.0405,-0.0373,-0.035,-0.0332,-0.0302,-0.0294,-0.0291,-0.0252,-0.0253,-0.023,-0.0254,-0.0249,-0.0272,-0.0273,-0.0273,-0.0273,0,-0.0206,-0.0225,-0.0268,-0.0309,-0.0319,-0.0352,-0.0399,-0.0424,-0.0452,-0.0451,-0.0449,-0.043,-0.0415,-0.0376,-0.0343,-0.0322,-0.0292,-0.0274,-0.0274,-0.0261,-0.0246,-0.0244,-0.0275,-0.0275,-0.0274,-0.0274,-0.0274,0,-0.0204,-0.0248,-0.0283,-0.0298,-0.0344,-0.038,-0.0403,-0.0441,-0.0456,-0.0467,-0.0458,-0.045,-0.0423,-0.0388,-0.0339,-0.0315,-0.0306,-0.0282,-0.0269,-0.0269,-0.0263,-0.0262,-0.0275,-0.0275,-0.0275,-0.0274,-0.0274,0,-0.0213,-0.0241,-0.0286,-0.0304,-0.0351,-0.0381,-0.0426,-0.0449,-0.0468,-0.0473,-0.0463,-0.0444,-0.0407,-0.0392,-0.0355,-0.0318,-0.0323,-0.0279,-0.0272,-0.0271,-0.027,-0.0264,-0.0263,-0.0275,-0.0275,-0.0275,-0.0275,0,-0.0211,-0.0236,-0.0276,-0.0331,-0.0352,-0.0384,-0.043,-0.0449,-0.0458,-0.0465,-0.0452,-0.0426,-0.0383,-0.0385,-0.0343,-0.0333,-0.0312,-0.0305,-0.033,-0.0322,-0.028,-0.0279,-0.0286,-0.0286,-0.0286,-0.0285,-0.0285,0,-0.0213,-0.0231,-0.0294,-0.0317,-0.0349,-0.0392,-0.0419,-0.0443,-0.0446,-0.044,-0.043,-0.0398,-0.0379,-0.0337,-0.0326,-0.0316,-0.0304,-0.0319,-0.0276,-0.0288,-0.028,-0.0279,-0.0278,-0.0285,-0.0285,-0.0285,-0.0285,0,-0.0214,-0.0241,-0.0272,-0.0315,-0.0355,-0.039,-0.0419,-0.0407,-0.0418,-0.0436,-0.0384,-0.0363,-0.0336,-0.0303,-0.0315,-0.0297,-0.0321,-0.0317,-0.0316,-0.0276,-0.0287,-0.0279,-0.0278,-0.0285,-0.0285,-0.0285,-0.0285,0,-0.0217,-0.0235,-0.0273,-0.0308,-0.035,-0.0366,-0.0386,-0.0379,-0.0379,-0.0366,-0.0343,-0.0322,-0.0316,-0.0292,-0.0292,-0.0292,-0.0269,-0.0268,-0.027,-0.027,-0.0254,-0.0265,-0.0254,0,0,0,0,0,-0.0216,-0.0227,-0.0259,-0.0291,-0.0327,-0.0359,-0.0376,-0.0384,-0.0385,-0.0344,-0.0342,-0.0311,-0.0286,-0.0267,-0.0258,-0.0282,-0.0278,-0.0274,-0.028,-0.0282,-0.0282,-0.0265,0,0,0,0,0,0,-0.0217,-0.0243,-0.0251,-0.0266,-0.0286,-0.0326,-0.034,-0.0345,-0.0312,-0.0311,-0.0284,-0.0312,-0.0277,-0.0287,-0.0256,-0.0258,-0.0262,-0.0274,-0.0274,-0.0281,-0.0282,-0.0282,-0.0264,0,0,0,0,0]}]]